Starlink 3559

operational
NORAD ID: 51860 Int'l Des: 2022-022 Owner: SPXS Country: US Constellation: starlink
LEOCIRCULAR

Über Starlink 3559

Beschreibung wird geladen...

Live-Position

3D-Globus wird geladen...

Nächste Überflüge

Höhenverlauf

Altitude vs Time

uPlot chart will show altitude changes over time

Zweizeiliger Elementsatz

1 51860U 22022J 25259.18589951 -.00000407 00000-0 -74934-5 0 9992
2 51860 53.2176 72.4988 0001389 89.7527 270.3624 15.08835475196773
Epoch: 16. Sept. 2025 • Age: 7 hours

Aktueller Status

Höhe 544.3 km
Geschwindigkeit 7.59 km/s
Subsatellitenpunkt -15.80°S, 92.08°E
Startdatum 3. März 2022
Alter 3.5 years
Typ internet

Technische Details

Klassifizierung Payload
Masse 297.00 kg
Trockenmasse 275.00 kg
Gesamtmasse 297.00 kg
Länge 0.20 m
Durchmesser 2.80 m
Spannweite 9.00 m
Form Box + pan
Hersteller SPXS
Bus-Typ Starlink
Phasenstatus In Orbit
Besitzer/Staat SPXS/US

Große Konstellationen

Loading constellations...